Flag for Spain Weather past 2 weeks in Arrecife, Canary Islands, Spain

Now
63 °F

Passing clouds.


Feels Like: 63 °F
Forecast: 61 / 70 °F
Wind: 16 mph from Northeast

Location: Lanzarote / Aeropuerto

Current Time: Mar 29, 2015 at 4:57:00 AM

Latest Report: Mar 29, 2015 at 2:00 AM


Visibility: N/A

Pressure: 30.27 "Hg

Humidity: 88%

Dew point: 59 °F

Location of ArrecifeLocation

Historic Weather in Arrecife — Graph

°F

Arrecife temperature yesterday

Maximum temperature yesterday: 73 °F (at 2:30 PM)
Minimum temperature yesterday: 61 °F (at 6:00 AM)
Average temperature yesterday: 65 °F

Past Weeks' High & Low Weather Summary

 TemperatureHumidityPressure
High73 °F (Mar 28, 2:30 PM)94% (Mar 22, 6:00 AM)30.30 "Hg (Mar 22, 6:00 AM)
Low55 °F (Mar 16, 7:00 AM)37% (Mar 24, 1:00 PM)29.77 "Hg (Mar 22, 3:30 PM)
Average63 °F66%30.06 "Hg
* Reported Mar 14 1:00 AM — Mar 29 2:00 AM, Arrecife, Weather by CustomWeather, © 2015

Note: Actual official high and low records may vary slightly from our data, if they occured in-between our weather recording intervals... More about our weather records

Advertising

Arrecife weather history for previous 24 hours

 ConditionsComfort  
Time TempWeatherWind HumidityBarometerVisibility
2:00 AM
Sun, Mar 29
63 °FPassing clouds.16 mph88%30.27 "HgN/A
12:30 AM63 °FPassing clouds.17 mph88%30.27 "HgN/A
12:00 AM63 °FPassing clouds.17 mph88%30.30 "HgN/A
11:30 PM
Sat, Mar 28
63 °FPassing clouds.18 mph88%30.30 "HgN/A
11:00 PM63 °FPassing clouds.18 mph83%30.30 "HgN/A
10:30 PM63 °FPassing clouds.20 mph83%30.30 "HgN/A
10:00 PM63 °FPassing clouds.17 mph83%30.30 "HgN/A
9:30 PM63 °FPassing clouds.17 mph83%30.30 "HgN/A
9:00 PM63 °FPassing clouds.18 mph83%30.30 "HgN/A
8:30 PM63 °FPassing clouds.17 mph83%30.30 "HgN/A
8:00 PM63 °FPassing clouds.20 mph83%30.30 "HgN/A
7:30 PM64 °FPassing clouds.18 mph78%30.27 "HgN/A
7:00 PM64 °FPassing clouds.20 mph78%30.27 "HgN/A
6:30 PM66 °FPassing clouds.17 mph73%30.27 "HgN/A
6:00 PM66 °FPassing clouds.18 mph73%30.27 "HgN/A
5:30 PM68 °FPassing clouds.18 mph69%30.27 "HgN/A
5:00 PM70 °FPassing clouds.18 mph64%30.24 "HgN/A
4:30 PM72 °FPassing clouds.18 mph65%30.24 "HgN/A
4:00 PM72 °FPassing clouds.17 mph65%30.24 "HgN/A
3:30 PM73 °FPassing clouds.16 mph57%30.24 "HgN/A
3:00 PM73 °FPassing clouds.15 mph61%30.24 "HgN/A
2:30 PM73 °FPassing clouds.13 mph57%30.27 "HgN/A
2:00 PM66 °FPassing clouds.21 mph83%30.27 "HgN/A
1:30 PM66 °FPassing clouds.21 mph83%30.27 "HgN/A
1:00 PM66 °FPassing clouds.20 mph83%30.27 "HgN/A
12:30 PM66 °FPassing clouds.18 mph83%30.30 "HgN/A
12:00 PM66 °FPassing clouds.18 mph83%30.30 "HgN/A
11:30 AM68 °FPassing clouds.17 mph78%30.30 "HgN/A
11:00 AM68 °FPassing clouds.18 mph78%30.30 "HgN/A
10:30 AM66 °FPassing clouds.17 mph78%30.30 "HgN/A
10:00 AM66 °FPassing clouds.17 mph78%30.30 "HgN/A
9:30 AM66 °FPassing clouds.17 mph78%30.30 "HgN/A
9:00 AM64 °FPassing clouds.14 mph83%30.30 "HgN/A
8:30 AM64 °FPassing clouds.13 mph83%30.27 "HgN/A
8:00 AM63 °FPassing clouds.10 mph83%30.27 "HgN/A
7:30 AM61 °FPassing clouds.9 mph88%30.27 "HgN/A
7:00 AM61 °FScattered clouds.8 mph88%30.27 "HgN/A
6:30 AM61 °FPassing clouds.8 mph88%30.24 "HgN/A
6:00 AM61 °FPassing clouds.7 mph88%30.24 "HgN/A
Weather by CustomWeather, © 2015

See weather overviewHow to use our weather pages